This is the latest recevied weather packets stored in our database for station/object KD5UMO-1. If no packets are shown the sender has not sent any weather packets the latest 10 day(s).
| Time | Temp. | Humidity | Pressure | Rain* | Wind** | Luminosity | Snow |
|---|---|---|---|---|---|---|---|
| 1778070277 | 11.67° C | 83% | 1013.2 hPa | 0 mm | - | 13 W/m² | - |
| 1778069975 | 11.67° C | 82% | 1013.1 hPa | 0 mm | - | 15 W/m² | - |
| 1778069672 | 12.22° C | 83% | 1013.2 hPa | 0 mm | - | 10 W/m² | - |
| 1778069369 | 12.22° C | 83% | 1013.1 hPa | 0 mm | - | 10 W/m² | - |
| 1778069066 | 12.22° C | 82% | 1013.2 hPa | 0 mm | - | 7 W/m² | - |
| 1778068764 | 11.67° C | 82% | 1013.4 hPa | 0 mm | - | 6 W/m² | - |
| 1778068461 | 12.22° C | 82% | 1012.8 hPa | 0 mm | - | 4 W/m² | - |
| 1778068160 | 12.22° C | 82% | 1012.8 hPa | 0 mm | - | 4 W/m² | - |
| 1778067857 | 12.22° C | 81% | 1012.9 hPa | 0 mm | - | 2 W/m² | - |
| 1778067556 | 12.22° C | 80% | 1012.5 hPa | 0 mm | - | 1 W/m² | - |
| 1778067253 | 12.22° C | 80% | 1012.3 hPa | 0 mm | - | 1 W/m² | - |
| 1778066949 | 12.22° C | 80% | 1012.3 hPa | 0 mm | - | 0 W/m² | - |
| 1778066647 | 12.78° C | 79% | 1012.6 hPa | 0 mm | - | 0 W/m² | - |
| 1778066344 | 12.78° C | 79% | 1012.4 hPa | 0 mm | - | 0 W/m² | - |
| 1778066041 | 12.78° C | 78% | 1012 hPa | 0 mm | - | 0 W/m² | - |
| 1778065739 | 12.78° C | 78% | 1012.3 hPa | 0 mm | - | 0 W/m² | - |
| 1778065436 | 12.78° C | 77% | 1012 hPa | 0 mm | - | 0 W/m² | - |
| 1778065133 | 12.78° C | 78% | 1011.8 hPa | 0 mm | - | 0 W/m² | - |
| 1778064829 | 12.78° C | 77% | 1012 hPa | 0 mm | - | 0 W/m² | - |
| 1778064527 | 12.78° C | 77% | 1011.7 hPa | 0 mm | - | 0 W/m² | - |
| 1778064224 | 12.78° C | 76% | 1011.7 hPa | 0 mm | - | 0 W/m² | - |
| 1778063922 | 12.78° C | 76% | 1011.7 hPa | 0 mm | - | 0 W/m² | - |
| 1778063619 | 13.33° C | 75% | 1011.6 hPa | 0 mm | - | 0 W/m² | - |
| 1778063316 | 12.78° C | 75% | 1011.4 hPa | 0 mm | - | 0 W/m² | - |
| 1778063014 | 13.33° C | 75% | 1011.2 hPa | 0 mm | - | 0 W/m² | - |
* Rain latest hour (hover to see other rain measurements)
** Current wind speed in m/s (hover to see current wind gust speed)